sat.trackr.live / text

‹ back to catalog

HULIANWANG DIGUI-23

NORAD 63690 · 2025-086D

PAYLOAD ACTIVE UNKNOWN

§ Identity

Operator
Country
PRC
Launch date
2025-04-28
Launch site
WSC
Launch vehicle
Mass (kg)
RCS (m²)

External: N2YO · Heavens-Above · Gunter

§ Orbital elements

Epoch: 2026-09-21T21:47:11.407488Z

Period
108.73 min
Inclination
86.5016°
Eccentricity
0.0001754
Mean motion
13.24411610 rev/d
Perigee alt
1,166.6 km
Apogee alt
1,169.2 km
Semi-major
7,546.1 km
B*
-1.8024e-4
RAAN
280.6829°
Arg perigee
78.7900°
Mean anomaly
281.3431°
Rev number
6,766

§ Raw data

HULIANWANG DIGUI-231 63690U 25086D   26264.90777092 -.00000063  00000+0 -18024-3 0  99942 63690  86.5016 280.6829 0001754  78.7900 281.3431 13.24411610 67665

JSON: /api/v1/satellites/63690 · /tle

For live sub-satellite position, see the globe view (requires WebGL).

§ Visibility from observer

Set your observer location to see the next 7 days of passes ≥ 10°. The values pass through the URL so the page stays shareable.

No JS? Fill the form by hand. The geolocation button needs JavaScript.